Location: Unspecified
(42.0334°N, 93.6656°W)
Time: 05:32:28
(UTC-05:00)

Amateur Radio Satellites - All Passes

Search period start: 30 May 2016 05:02
Search period end: 31 May 2016 05:02
Location: Unspecified, 42.0334°N, 93.6656°W

Satellite Date Start Highest point End Downlink Frequencies (MHz)
Time Altitude Azimuth
HORYU 2 30 May 05:09:05 05:12:13 19° 93° (E) 05:15:21 437.375
AO-85 30 May 05:21:42 05:26:33 34° 114° (ESE) 05:31:21 145.980
AO-7 30 May 05:23:18 05:31:43 88° 108° (ESE) 05:40:07 29.400- 29.500
KKS-1 30 May 05:30:06 05:32:22 14° 269° (W) 05:34:38 437.445
YUBILEINY 30 May 05:36:41 05:43:11 24° 280° (W) 05:49:43 435.215
ITAMSAT 1 30 May 05:53:49 05:56:33 14° 301° (WNW) 05:59:17 435.822/435.867
STARS 30 May 05:58:29 06:00:30 13° 269° (W) 06:02:32 437.465
CUBESAT XI-V 30 May 05:58:32 06:03:13 80° 257° (WSW) 06:07:57 437.345
CUTE-I 30 May 06:10:21 06:11:49 11° 88° (E) 06:13:18 437.470
LilacSat-2 30 May 06:26:55 06:27:59 11° 90° (E) 06:29:01 437.200
BRITE-PL 30 May 06:32:16 06:36:00 21° 91° (E) 06:39:31 437.365/2234.400
Cosmos 2491 30 May 06:34:26 06:41:02 23° 296° (WNW) 06:47:41 435.465 / 435.565
GOMX 1 30 May 06:44:29 06:45:38 11° 87° (E) 06:46:47 467.674
HORYU 2 30 May 06:44:46 06:48:56 41° 290° (WNW) 06:53:06 437.375
Cosmos 2504 30 May 06:46:53 06:53:46 28° 277° (W) 07:00:53 435.465 / 435.565
NOAA 15 30 May 06:47:10 06:52:04 37° 98° (E) 06:56:55 137.62
STRAND 1 30 May 06:47:31 06:51:54 30° 66° (ENE) 06:56:18 437.568
AO-85 30 May 07:01:53 07:07:01 40° 311° (NW) 07:12:01 145.980
Cubesat XI-IV 30 May 07:02:07 07:07:01 35° 97° (E) 07:11:54 437.490
AO-7 30 May 07:17:22 07:23:29 23° 308° (NW) 07:29:37 29.400- 29.500
DOVE 4 30 May 07:18:59 07:20:05 11° 88° (E) 07:21:10 437.250
NOAA 18 30 May 07:23:11 07:28:38 64° 103° (ESE) 07:34:05 137.9125
AIST 1 30 May 07:29:23 07:31:57 15° 69° (ENE) 07:34:29
GONETS M04 30 May 07:34:20 07:39:54 18° 60° (ENE) 07:45:25
HO-68 30 May 07:42:11 07:44:05 11° 86° (E) 07:46:00 435.675
CUTE-I 30 May 07:47:10 07:52:34 90° 50° (NE) 07:57:57 437.470
PRISM 30 May 07:57:55 08:01:14 24° 67° (ENE) 08:04:35 437.425
LilacSat-2 30 May 07:58:54 08:02:35 51° 286° (WNW) 08:06:16 437.200
BRITE-PL 30 May 08:09:59 08:14:45 42° 290° (WNW) 08:19:07 437.365/2234.400
CANX-2 30 May 08:13:24 08:15:48 15° 91° (E) 08:18:12 2200.000
GOMX 1 30 May 08:19:45 08:24:21 68° 286° (WNW) 08:28:38 467.674
STRAND 1 30 May 08:26:23 08:30:58 34° 263° (W) 08:35:36 437.568
SO-50 30 May 08:26:35 08:30:58 36° 48° (NE) 08:35:11 436.795
NOAA 15 30 May 08:27:10 08:31:42 29° 294° (WNW) 08:36:11 137.62
O/OREOS (USA 219) 30 May 08:38:12 08:41:22 19° 101° (E) 08:44:31 437.305
CUTE 1.7 + AOD 2 30 May 08:39:10 08:42:42 24° 94° (E) 08:46:12 437.475
Cubesat XI-IV 30 May 08:42:19 08:46:59 31° 294° (WNW) 08:51:39 437.490
AO-85 30 May 08:48:14 08:48:55 10° 331° (NNW) 08:49:36 145.980
COMPASS 1 30 May 08:50:38 08:53:23 17° 92° (E) 08:56:07 437.405
AAUSAT CUBESAT 2 30 May 08:50:51 08:52:54 13° 91° (E) 08:54:55 437.432
DOVE 4 30 May 08:54:01 08:58:19 62° 285° (WNW) 09:02:25 437.250
PCSat 30 May 08:59:12 09:03:49 29° 109° (ESE) 09:08:27 145.827
CINEMA 3 30 May 09:03:09 09:07:09 45° 99° (E) 09:11:08 145.822/145.860
NOAA 18 30 May 09:05:02 09:08:46 19° 300° (WNW) 09:12:31 137.9125
AIST 1 30 May 09:05:40 09:09:50 46° 267° (W) 09:13:57
Cosmos 2499 30 May 09:18:29 09:26:50 49° 75° (ENE) 09:35:22 435.465 / 435.565
HO-68 30 May 09:25:48 09:32:59 71° 104° (ESE) 09:40:09 435.675
CUTE-I 30 May 09:29:23 09:31:50 13° 302° (WNW) 09:34:17 437.470
GONETS M04 30 May 09:29:24 09:38:09 84° 82° (E) 09:46:52
PRISM 30 May 09:32:45 09:36:24 29° 263° (W) 09:40:06 437.425
CUBEBUG 2 30 May 09:32:58 09:36:40 30° 97° (E) 09:40:24 437.445
AUBIESAT-1 30 May 09:36:00 09:39:19 76° 107° (ESE) 09:42:39 437.475
SEEDS 30 May 09:44:20 09:48:37 86° 283° (WNW) 09:52:53 437.485
M-CUBED/EXP-1 PRIME 30 May 09:45:26 09:48:40 61° 290° (WNW) 09:51:55 437.505
CANX-2 30 May 09:47:47 09:51:56 50° 287° (WNW) 09:56:05 2200.000
UNISAT 6 30 May 09:50:44 09:54:01 21° 67° (ENE) 09:57:17 437.425
FUNcube-1 30 May 09:51:19 09:54:33 21° 94° (E) 09:57:49 145.935
UWE-3 30 May 09:55:07 09:59:01 36° 98° (E) 10:02:58 435.000/436.395/437.385
TIGRISAT 30 May 09:57:04 10:00:30 23° 67° (ENE) 10:03:54 435.000
SO-50 30 May 10:07:20 10:11:18 28° 247° (WSW) 10:15:11 436.795
CUTE 1.7 + AOD 2 30 May 10:14:48 10:18:31 29° 291° (WNW) 10:22:15 437.475
O/OREOS (USA 219) 30 May 10:16:04 10:20:26 43° 298° (WNW) 10:24:46 437.305
CUSAT 1 30 May 10:18:45 10:21:43 13° 75° (ENE) 10:24:51 437.405
BEESAT 3 30 May 10:20:40 10:22:49 14° 110° (ESE) 10:24:59 437.485
AAUSAT CUBESAT 2 30 May 10:24:35 10:28:41 52° 286° (WNW) 10:32:45 437.432
COMPASS 1 30 May 10:25:09 10:29:08 41° 288° (WNW) 10:33:06 437.405
DELFI C3 30 May 10:30:00 10:33:37 31° 96° (E) 10:37:12 145.870
Oscar 11 30 May 10:30:10 10:34:31 69° 102° (ESE) 10:38:51 145.826/435.025
ANTELSAT 30 May 10:30:43 10:34:57 56° 73° (ENE) 10:39:09 437.575/2403.000
HUMSAT D 30 May 10:33:33 10:36:06 16° 92° (E) 10:38:41 437.325/437.525
POPSAT HIP 1 30 May 10:36:14 10:37:55 12° 62° (ENE) 10:39:37 437.405
QB50P1 30 May 10:36:15 10:38:01 12° 62° (ENE) 10:39:47 145.935-145.965
QB50P2 30 May 10:39:08 10:41:21 14° 63° (ENE) 10:43:35 145.880/145.840
CINEMA 3 30 May 10:41:29 10:43:56 15° 295° (WNW) 10:46:22 145.822/145.860
POLYITAN 1 30 May 10:41:34 10:43:50 14° 63° (ENE) 10:46:07 437.675
PCSat 30 May 10:41:55 10:47:02 41° 307° (NW) 10:52:11 145.827
ZACube-1 30 May 10:50:18 10:54:32 79° 284° (WNW) 10:58:49 437.345
NANOSAT C BR1 30 May 10:51:47 10:54:33 17° 65° (ENE) 10:57:20 145.865
CUBEBUG 2 30 May 11:09:52 11:13:09 23° 292° (WNW) 11:16:30 437.445
Cosmos 2499 30 May 11:11:56 11:19:45 39° 274° (W) 11:27:43 435.465 / 435.565
HO-68 30 May 11:14:33 11:20:04 25° 303° (WNW) 11:25:34 435.675
UNISAT 6 30 May 11:26:35 11:30:32 34° 262° (W) 11:34:28 437.425
FUNcube-1 30 May 11:27:05 11:30:51 33° 289° (WNW) 11:34:40 145.935
DUCHIFAT 1 30 May 11:27:32 11:31:26 38° 71° (ENE) 11:35:20 145.980
BEESAT 2 30 May 11:27:35 11:31:21 43° 118° (ESE) 11:35:09 435.950
GONETS M04 30 May 11:28:06 11:33:48 20° 282° (WNW) 11:39:31
UWE-3 30 May 11:32:14 11:35:15 19° 293° (WNW) 11:38:18 435.000/436.395/437.385
TIGRISAT 30 May 11:33:12 11:37:03 31° 263° (W) 11:40:53 435.000
BUGSAT 1 30 May 11:33:40 11:36:53 22° 67° (ENE) 11:40:05 437.445
AISAT 30 May 11:48:23 11:50:33 13° 91° (E) 11:52:43 437.250
CUSAT 1 30 May 11:55:35 12:02:10 73° 96° (E) 12:10:03 437.405
BEESAT 3 30 May 11:56:15 12:00:04 50° 306° (NW) 12:03:57 437.485
50 SAT 30 May 11:57:17 11:59:40 16° 93° (E) 12:02:03 437.505
DELFI C3 30 May 12:05:14 12:08:18 21° 293° (WNW) 12:11:21 145.870
HUMSAT D 30 May 12:07:58 12:11:56 43° 288° (WNW) 12:15:56 437.325/437.525
Oscar 11 30 May 12:08:21 12:10:04 12° 298° (WNW) 12:11:47 145.826/435.025
POPSAT HIP 1 30 May 12:08:59 12:13:10 65° 258° (WSW) 12:17:23 437.405
QB50P1 30 May 12:09:04 12:13:16 64° 259° (W) 12:17:28 145.935-145.965
ANTELSAT 30 May 12:10:04 12:12:00 13° 269° (W) 12:13:57 437.575/2403.000
QB50P2 30 May 12:12:33 12:16:43 55° 260° (W) 12:20:53 145.880/145.840
POLYITAN 1 30 May 12:15:04 12:19:12 53° 260° (W) 12:23:21 437.675
DANDE 30 May 12:18:24 12:23:59 52° 91° (E) 12:31:11 436.750
JAS-2 30 May 12:22:32 12:29:28 42° 65° (ENE) 12:36:41 435.910
NANOSAT C BR1 30 May 12:25:56 12:29:57 43° 261° (W) 12:33:59 145.865
AIST 2 30 May 12:27:29 12:28:58 12° 108° (ESE) 12:30:27 435.215
DX 1 30 May 12:30:41 12:34:32 30° 97° (E) 12:38:21 434.975-435.025
CUBEBUG 1 30 May 12:31:23 12:35:30 39° 98° (E) 12:39:33 437.445
ESTCUBE 1 30 May 12:37:30 12:42:03 67° 102° (ESE) 12:46:33 437.505/2401.250
SPROUT 30 May 12:44:39 12:47:55 21° 94° (E) 12:51:08 437.525
VELOX 1 30 May 12:46:29 12:50:50 54° 100° (E) 12:55:09 145.980
Oscar 19 30 May 13:03:49 13:08:26 34° 67° (ENE) 13:13:04 437.125/150
DUCHIFAT 1 30 May 13:04:21 13:07:16 18° 267° (W) 13:10:11 145.980
BEESAT 2 30 May 13:06:24 13:09:23 20° 316° (NW) 13:12:24 435.950
BUGSAT 1 30 May 13:08:18 13:12:04 32° 263° (W) 13:15:50 437.445
UKube-1 30 May 13:13:42 13:18:03 73° 103° (ESE) 13:22:21 .
AISAT 30 May 13:23:04 13:27:24 56° 287° (WNW) 13:31:41 437.250
50 SAT 30 May 13:30:07 13:33:30 33° 289° (WNW) 13:36:53 437.505
CUSAT 1 30 May 13:39:36 13:45:11 25° 298° (WNW) 13:51:23 437.405
Gurwin Techsat 1B 30 May 13:51:27 13:56:21 39° 69° (ENE) 14:01:16 435.225
AO-85 30 May 13:53:28 13:57:40 30° 45° (NE) 14:01:32 145.980
ITAMSAT 1 30 May 13:53:54 13:57:11 17° 61° (ENE) 14:00:28 435.822/435.867
DANDE 30 May 14:02:06 14:07:21 29° 296° (WNW) 14:13:43 436.750
AIST 2 30 May 14:02:48 14:06:54 67° 305° (NW) 14:11:02 435.215
DX 1 30 May 14:07:02 14:10:36 25° 293° (WNW) 14:14:09 434.975-435.025
JAS-2 30 May 14:07:14 14:14:18 45° 264° (W) 14:21:48 435.910
CUBEBUG 1 30 May 14:08:20 14:11:31 20° 295° (WNW) 14:14:40 437.445
ESTCUBE 1 30 May 14:16:05 14:18:17 14° 299° (WNW) 14:20:30 437.505/2401.250
SPROUT 30 May 14:20:06 14:23:56 33° 290° (WNW) 14:27:45 437.525
VELOX 1 30 May 14:24:17 14:26:51 15° 297° (WNW) 14:29:25 145.980
AO-7 30 May 14:31:54 14:38:41 29° 55° (NE) 14:45:30 29.400- 29.500
TISAT 1 30 May 14:32:02 14:36:14 90° 299° (WNW) 14:40:23 437.305
Oscar 19 30 May 14:43:09 14:47:43 31° 264° (W) 14:52:19 437.125/150
Cosmos 2491 30 May 14:44:33 14:52:44 41° 72° (ENE) 15:00:48 435.465 / 435.565
YUBILEINY 30 May 14:48:10 14:52:48 16° 75° (ENE) 14:57:25 435.215
UKube-1 30 May 14:52:01 14:53:29 12° 299° (WNW) 14:54:56 .
SWISSCUBE 30 May 15:09:06 15:13:42 44° 99° (E) 15:18:16 437.505
ITUPSAT 1 30 May 15:17:00 15:21:39 46° 100° (E) 15:26:16 437.325
ITAMSAT 1 30 May 15:30:59 15:36:06 65° 258° (WSW) 15:41:17 435.822/435.867
Gurwin Techsat 1B 30 May 15:31:56 15:36:23 27° 265° (W) 15:40:51 435.225
AO-85 30 May 15:34:02 15:38:08 32° 246° (WSW) 15:41:54 145.980
BEESAT 30 May 15:38:18 15:43:07 79° 103° (ESE) 15:47:55 436.000
KKS-1 30 May 15:44:44 15:45:16 10° 89° (E) 15:45:49 437.445
AIST 2 30 May 15:45:17 15:46:11 11° 324° (NW) 15:47:06 435.215
HORYU 2 30 May 16:07:47 16:10:54 19° 65° (ENE) 16:14:02 437.375
MOZHAYETS 4 30 May 16:21:03 16:24:40 22° 93° (E) 16:28:16
AO-7 30 May 16:22:33 16:30:48 70° 254° (WSW) 16:39:08 29.400- 29.500
YUBILEINY 30 May 16:39:27 16:48:07 82° 96° (E) 16:56:51 435.215
Cosmos 2491 30 May 16:41:28 16:49:35 45° 273° (W) 16:57:39 435.465 / 435.565
SWISSCUBE 30 May 16:47:35 16:51:12 21° 296° (WNW) 16:54:47 437.505
ITUPSAT 1 30 May 16:55:39 16:59:09 20° 296° (WNW) 17:02:39 437.325
RS-15 30 May 17:04:53 17:15:46 57° 112° (ESE) 17:27:14 29.354- 29.394
NOAA 18 30 May 17:11:49 17:15:26 18° 60° (ENE) 17:19:05 137.9125
KKS-1 30 May 17:17:55 17:22:21 74° 286° (WNW) 17:26:45 437.445
BEESAT 30 May 17:18:08 17:20:15 13° 300° (WNW) 17:22:21 436.000
CUTE-I 30 May 17:31:21 17:35:14 21° 62° (ENE) 17:39:08 437.470
Cosmos 2504 30 May 17:31:56 17:38:51 50° 90° (E) 17:46:12 435.465 / 435.565
BRITE-PL 30 May 17:42:00 17:46:52 30° 67° (ENE) 17:51:44 437.365/2234.400
HORYU 2 30 May 17:42:59 17:47:10 42° 261° (W) 17:51:22 437.375
STARS 30 May 17:44:33 17:48:55 74° 286° (WNW) 17:53:16 437.465
PCSat 30 May 17:46:04 17:50:46 29° 48° (NE) 17:55:26 145.827
GOMX 1 30 May 17:51:07 17:54:40 18° 63° (ENE) 17:58:10 467.674
CUBESAT XI-V 30 May 17:55:14 17:59:07 25° 94° (E) 18:02:57 437.345
MOZHAYETS 4 30 May 17:57:39 18:01:56 38° 290° (WNW) 18:06:13
NOAA 15 30 May 18:07:26 18:12:38 62° 72° (ENE) 18:17:54 137.62
HO-68 30 May 18:13:28 18:15:14 11° 47° (NE) 18:17:00 435.675
AO-7 30 May 18:22:00 18:25:00 12° 273° (W) 18:28:02 29.400- 29.500
DOVE 4 30 May 18:23:27 18:26:36 17° 64° (ENE) 18:29:41 437.250
Cubesat XI-IV 30 May 18:24:25 18:29:38 60° 72° (ENE) 18:34:53 437.490
BEESAT 3 30 May 18:36:47 18:38:47 13° 40° (NE) 18:40:47 437.485
YUBILEINY 30 May 18:39:40 18:46:00 22° 297° (WNW) 18:52:25 435.215
LilacSat-2 30 May 18:40:50 18:44:37 79° 77° (ENE) 18:48:25 437.200
O/OREOS (USA 219) 30 May 18:46:22 18:50:34 38° 61° (ENE) 18:54:44 437.305
NOAA 18 30 May 18:50:08 18:55:33 66° 257° (WSW) 19:01:00 137.9125
M-CUBED/EXP-1 PRIME 30 May 18:59:25 19:01:43 15° 61° (ENE) 19:03:57 437.505
CANX-2 30 May 19:07:55 19:09:23 12° 62° (ENE) 19:10:50 2200.000
CUTE-I 30 May 19:09:42 19:14:52 54° 260° (W) 19:20:06 437.470
RS-15 30 May 19:17:28 19:28:30 50° 317° (NW) 19:40:10 29.354- 29.394
BRITE-PL 30 May 19:19:48 19:25:07 41° 263° (W) 19:30:29 437.365/2234.400
Cosmos 2504 30 May 19:26:14 19:32:33 31° 291° (WNW) 19:39:14 435.465 / 435.565
GOMX 1 30 May 19:26:47 19:32:14 67° 259° (W) 19:37:32 467.674
PCSat 30 May 19:29:10 19:34:20 46° 247° (WSW) 19:39:29 145.827
CUBESAT XI-V 30 May 19:32:17 19:36:32 34° 291° (WNW) 19:40:45 437.345
CUTE 1.7 + AOD 2 30 May 19:32:47 19:35:45 19° 66° (ENE) 19:38:43 437.475
COMPASS 1 30 May 19:42:59 19:44:48 13° 63° (ENE) 19:46:37 437.405
BEESAT 2 30 May 19:45:16 19:48:52 31° 49° (NE) 19:52:27 435.950
NOAA 15 30 May 19:49:26 19:52:50 17° 269° (W) 19:56:15 137.62
HO-68 30 May 19:54:30 20:01:23 55° 67° (ENE) 20:08:19 435.675
DOVE 4 30 May 19:58:40 20:03:50 65° 259° (W) 20:08:46 437.250
CINEMA 3 30 May 20:04:41 20:09:09 46° 73° (ENE) 20:13:26 145.822/145.860
Cubesat XI-IV 30 May 20:06:39 20:10:07 17° 269° (W) 20:13:35 437.490
ISS 30 May 20:09:41 20:12:20 23° 135° (SE) 20:14:59 145.825
BEESAT 3 30 May 20:13:02 20:17:00 79° 239° (WSW) 20:20:55 437.485
AUBIESAT-1 30 May 20:22:08 20:26:11 76° 254° (WSW) 20:29:55 437.475
O/OREOS (USA 219) 30 May 20:26:22 20:29:41 21° 259° (WSW) 20:32:59 437.305
CUBEBUG 2 30 May 20:31:38 20:35:16 27° 69° (ENE) 20:38:51 437.445
M-CUBED/EXP-1 PRIME 30 May 20:32:03 20:36:01 46° 254° (WSW) 20:39:42 437.505
STRAND 1 30 May 20:35:40 20:40:52 79° 103° (ESE) 20:46:01 437.568
SEEDS 30 May 20:36:06 20:40:14 67° 75° (ENE) 20:44:25 437.485
GONETS M04 30 May 20:37:46 20:43:28 19° 78° (ENE) 20:49:08
CANX-2 30 May 20:40:28 20:44:39 68° 259° (W) 20:48:53 2200.000
AIST 2 30 May 20:46:50 20:48:46 13° 38° (NE) 20:50:42 435.215
FUNcube-1 30 May 20:47:53 20:50:42 18° 66° (ENE) 20:53:30 145.935
CUSAT 1 30 May 20:52:23 20:54:31 11° 51° (NE) 20:56:34 437.405
UWE-3 30 May 20:52:38 20:56:24 31° 70° (ENE) 21:00:07 435.000/436.395/437.385
PHONESAT 2.4 30 May 21:02:06 21:04:32 21° 155° (SSE) 21:06:59 2401.200-2431.200
CUTE 1.7 + AOD 2 30 May 21:07:23 21:11:18 38° 262° (W) 21:15:17 437.475
PRISM 30 May 21:13:31 21:17:20 34° 98° (E) 21:21:06 437.425
AAUSAT CUBESAT 2 30 May 21:14:42 21:18:49 78° 258° (WSW) 21:23:00 437.432
COMPASS 1 30 May 21:15:45 21:19:50 60° 259° (W) 21:23:59 437.405
DELFI C3 30 May 21:16:54 21:19:48 20° 67° (ENE) 21:22:44 145.870
DANDE 30 May 21:17:32 21:19:53 11° 51° (NE) 21:22:11 436.750
BEESAT 2 30 May 21:23:20 21:26:36 24° 246° (WSW) 21:29:50 435.950
Oscar 11 30 May 21:25:02 21:29:13 54° 73° (ENE) 21:33:26 145.826/435.025
HUMSAT D 30 May 21:26:36 21:28:09 12° 63° (ENE) 21:29:44 437.325/437.525
AIST 1 30 May 21:34:40 21:39:04 83° 278° (W) 21:43:30
RS-15 30 May 21:35:42 21:44:58 25° 350° (N) 21:54:31 29.354- 29.394
CINEMA 3 30 May 21:43:22 21:46:28 18° 267° (W) 21:49:30 145.822/145.860
HO-68 30 May 21:43:22 21:49:23 29° 265° (W) 21:55:29 435.675
ISS 30 May 21:45:27 21:48:36 44° 331° (NNW) 21:51:46 145.825
ZACube-1 30 May 21:46:16 21:50:29 83° 75° (ENE) 21:54:40 437.345
Cosmos 2499 30 May 21:56:32 22:03:00 35° 85° (E) 22:09:52 435.465 / 435.565
CUBEBUG 2 30 May 22:08:13 22:11:51 26° 265° (W) 22:15:25 437.445
SEEDS 30 May 22:15:57 22:16:23 10° 271° (W) 22:16:51 437.485
STRAND 1 30 May 22:16:41 22:19:22 14° 301° (WNW) 22:22:02 437.568
FUNcube-1 30 May 22:22:44 22:26:41 39° 262° (W) 22:30:35 145.935
AIST 2 30 May 22:23:43 22:27:53 88° 59° (ENE) 22:32:01 435.215
ANTELSAT 30 May 22:24:09 22:25:21 11° 90° (E) 22:26:33 437.575/2403.000
UWE-3 30 May 22:29:35 22:32:54 22° 266° (W) 22:36:11 435.000/436.395/437.385
GONETS M04 30 May 22:30:16 22:39:05 86° 278° (W) 22:47:54
CUSAT 1 30 May 22:31:13 22:38:41 57° 74° (ENE) 22:44:43 437.405
PHONESAT 2.4 30 May 22:37:51 22:40:57 56° 170° (S) 22:44:02 2401.200-2431.200
SO-50 30 May 22:45:32 22:45:43 10° 106° (ESE) 22:45:54 436.795
AISAT 30 May 22:46:29 22:48:50 14° 62° (ENE) 22:51:12 437.250
PRISM 30 May 22:49:18 22:52:26 21° 294° (WNW) 22:55:32 437.425
DELFI C3 30 May 22:50:54 22:54:27 32° 263° (W) 22:58:05 145.870
DANDE 30 May 22:56:50 23:04:59 51° 72° (ENE) 23:12:08 436.750
HUMSAT D 30 May 22:59:15 23:03:17 61° 259° (W) 23:07:19 437.325/437.525
Oscar 11 30 May 23:03:35 23:05:41 13° 270° (W) 23:07:48 145.826/435.025
UNISAT 6 30 May 23:17:10 23:21:19 43° 99° (E) 23:25:29 437.425
TIGRISAT 30 May 23:23:26 23:27:37 47° 100° (E) 23:31:51 435.000
ISS 30 May 23:23:27 23:25:40 17° 351° (N) 23:27:53 145.825
DX 1 30 May 23:26:34 23:30:19 28° 68° (ENE) 23:34:05 434.975-435.025
CUBEBUG 1 30 May 23:27:33 23:31:34 35° 70° (ENE) 23:35:36 437.445
ESTCUBE 1 30 May 23:37:06 23:41:34 64° 74° (ENE) 23:46:04 437.505/2401.250
SPROUT 30 May 23:39:05 23:42:01 18° 65° (ENE) 23:44:56 437.525
VELOX 1 30 May 23:43:52 23:48:12 51° 72° (ENE) 23:52:32 145.980
Cosmos 2499 30 May 23:48:54 23:55:51 45° 286° (WNW) 00:03:22 435.465 / 435.565
RS-15 30 May 23:52:27 00:02:51 31° 25° (NNE) 00:13:22 29.354- 29.394
POPSAT HIP 1 30 May 23:54:10 23:57:10 19° 93° (E) 00:00:10 437.405
QB50P1 30 May 23:54:11 23:57:13 19° 93° (E) 00:00:14 145.935-145.965
QB50P2 30 May 23:57:35 00:00:54 22° 94° (E) 00:04:12 145.880/145.840
ANTELSAT 30 May 23:58:11 00:02:28 67° 286° (WNW) 00:06:51 437.575/2403.000
POLYITAN 1 31 May 00:00:03 00:03:23 22° 95° (E) 00:06:42 437.675
50 SAT 31 May 00:08:06 00:11:43 72° 258° (WSW) 00:15:23 437.505
UKube-1 31 May 00:08:17 00:12:34 64° 73° (ENE) 00:16:53 .
NANOSAT C BR1 31 May 00:10:03 00:13:39 27° 96° (E) 00:17:13 145.865
CUSAT 1 31 May 00:14:14 00:20:08 27° 277° (W) 00:25:11 437.405
PHONESAT 2.4 31 May 00:14:28 00:17:34 59° 188° (S) 00:20:40 2401.200-2431.200
AISAT 31 May 00:20:23 00:24:48 62° 258° (WSW) 00:29:15 437.250
SO-50 31 May 00:20:30 00:25:25 83° 122° (ESE) 00:30:20 436.795
GONETS M04 31 May 00:31:32 00:37:17 19° 299° (WNW) 00:43:04
DANDE 31 May 00:40:08 00:47:34 37° 273° (W) 00:54:09 436.750
DUCHIFAT 1 31 May 00:46:26 00:50:36 67° 102° (ESE) 00:54:45 145.980
BUGSAT 1 31 May 00:49:31 00:53:08 31° 97° (E) 00:56:43 437.445
UNISAT 6 31 May 00:54:47 00:57:44 18° 295° (WNW) 01:00:42 437.425
ISS 31 May 01:00:43 01:03:03 18° 12° (NNE) 01:05:21 145.825
TIGRISAT 31 May 01:01:14 01:03:57 17° 295° (WNW) 01:06:42 435.000
DX 1 31 May 01:02:44 01:06:27 27° 264° (W) 01:10:12 434.975-435.025
CUBEBUG 1 31 May 01:04:27 01:07:55 22° 266° (W) 01:11:23 437.445
BEESAT 31 May 01:11:04 01:12:36 11° 59° (ENE) 01:14:08 436.000
SPROUT 31 May 01:13:35 01:17:39 42° 262° (W) 01:21:44 437.525
ESTCUBE 1 31 May 01:16:52 01:18:48 13° 270° (W) 01:20:45 437.505/2401.250
JAS-2 31 May 01:17:29 01:23:52 32° 92° (E) 01:29:37 435.910
Oscar 19 31 May 01:17:52 01:18:36 10° 88° (E) 01:19:21 437.125/150
VELOX 1 31 May 01:22:18 01:24:57 15° 268° (W) 01:27:37 145.980
TISAT 1 31 May 01:23:40 01:27:52 70° 75° (ENE) 01:32:05 437.305
POPSAT HIP 1 31 May 01:29:14 01:33:04 36° 289° (WNW) 01:36:55 437.405
QB50P1 31 May 01:29:16 01:33:06 36° 290° (WNW) 01:36:56 145.935-145.965
QB50P2 31 May 01:33:01 01:36:44 31° 291° (WNW) 01:40:27 145.880/145.840
POLYITAN 1 31 May 01:35:31 01:39:12 30° 291° (WNW) 01:42:53 437.675
NANOSAT C BR1 31 May 01:45:50 01:49:18 25° 292° (WNW) 01:52:44 145.865
UKube-1 31 May 01:47:33 01:49:02 12° 270° (W) 01:50:31 .
PHONESAT 2.4 31 May 01:51:26 01:54:01 23° 203° (SSW) 01:56:35 2401.200-2431.200
SO-50 31 May 02:03:11 02:06:31 18° 321° (NW) 02:09:50 436.795
RS-15 31 May 02:05:33 02:17:55 74° 54° (NE) 02:30:13 29.354- 29.394
Gurwin Techsat 1B 31 May 02:08:30 02:11:25 15° 90° (E) 02:14:19 435.225
SWISSCUBE 31 May 02:15:47 02:20:24 53° 71° (ENE) 02:25:03 437.505
ITUPSAT 1 31 May 02:23:59 02:28:38 56° 72° (ENE) 02:33:19 437.325
DUCHIFAT 1 31 May 02:24:19 02:25:44 12° 298° (WNW) 02:27:10 145.980
BUGSAT 1 31 May 02:25:20 02:28:19 20° 293° (WNW) 02:31:18 437.445
ISS 31 May 02:36:48 02:40:01 54° 30° (NNE) 02:43:14 145.825
KKS-1 31 May 02:42:59 02:44:30 12° 60° (ENE) 02:46:00 437.445
BEESAT 31 May 02:44:54 02:49:39 87° 256° (WSW) 02:54:27 436.000
YUBILEINY 31 May 02:49:16 02:57:28 42° 73° (ENE) 03:05:39 435.215
Oscar 19 31 May 02:53:27 02:58:38 90° 187° (S) 03:03:46 437.125/150
JAS-2 31 May 03:02:07 03:09:07 48° 293° (WNW) 03:15:22 435.910
STARS 31 May 03:08:45 03:09:53 11° 60° (ENE) 03:11:00 437.465
Cosmos 2504 31 May 03:23:23 03:29:33 21° 64° (ENE) 03:35:50 435.465 / 435.565
MOZHAYETS 4 31 May 03:23:33 03:27:03 22° 66° (ENE) 03:30:36
ITAMSAT 1 31 May 03:43:24 03:48:23 43° 99° (E) 03:53:20 435.822/435.867
Cosmos 2491 31 May 03:46:04 03:54:18 47° 88° (E) 04:02:33 435.465 / 435.565
Gurwin Techsat 1B 31 May 03:46:34 03:51:53 71° 287° (WNW) 03:57:09 435.225
SWISSCUBE 31 May 03:55:30 03:58:31 17° 268° (W) 04:01:32 437.505
ITUPSAT 1 31 May 04:04:00 04:06:50 16° 269° (W) 04:09:40 437.325
AO-85 31 May 04:11:43 04:12:24 10° 105° (ESE) 04:13:04 145.980
ISS 31 May 04:13:52 04:16:12 18° 227° (SW) 04:18:32 145.825
KKS-1 31 May 04:15:57 04:20:26 78° 257° (WSW) 04:24:55 437.445
RS-15 31 May 04:19:00 04:29:26 35° 256° (WSW) 04:39:50 29.354- 29.394
AO-7 31 May 04:23:49 04:31:34 40° 99° (E) 04:39:17 29.400- 29.500
Oscar 19 31 May 04:35:05 04:37:11 12° 302° (WNW) 04:39:15 437.125/150
STARS 31 May 04:41:10 04:45:34 81° 255° (WSW) 04:50:00 437.465
YUBILEINY 31 May 04:46:09 04:54:15 44° 273° (W) 05:02:24 435.215
